| time (UTC) | temp F | wind direction | speed MPH | gust MPH | rain 1hr in | rain 24hr in | rain mn in | humidity % | barometer mb |
| 20260506232013 | 44 | 281 | 0.0 | 0.0 | 0.00 | 0.77 | 0.70 | 94 | 1008.8 |
| 20260506231518 | 44 | 280 | 0.0 | 0.0 | 0.00 | 0.77 | 0.70 | 94 | 1008.8 |
| 20260506231017 | 44 | 281 | 0.0 | 0.0 | 0.00 | 0.77 | 0.70 | 94 | 1008.5 |
| 20260506230517 | 44 | 281 | 0.0 | 1.0 | 0.00 | 0.77 | 0.70 | 94 | 1008.3 |
| 20260506225515 | 44 | 281 | 0.0 | 0.0 | 0.00 | 0.77 | 0.70 | 94 | 1008.5 |
| 20260506225014 | 44 | 281 | 0.0 | 0.0 | 0.00 | 0.77 | 0.70 | 94 | 1008.5 |
| 20260506224513 | 44 | 325 | 0.0 | 0.0 | 0.00 | 0.77 | 0.70 | 94 | 1008.3 |
| 20260506224013 | 44 | 325 | 0.0 | 0.0 | 0.00 | 0.77 | 0.70 | 94 | 1008.2 |
| 20260506223512 | 44 | 325 | 0.0 | 0.0 | 0.00 | 0.77 | 0.70 | 94 | 1008.2 |
| 20260506223018 | 44 | 325 | 0.0 | 0.0 | 0.00 | 0.77 | 0.70 | 94 | 1008.1 |
| 20260506222015 | 44 | 324 | 0.0 | 0.0 | 0.00 | 0.77 | 0.70 | 94 | 1008.1 |
| 20260506221018 | 44 | 323 | 0.0 | 0.0 | 0.00 | 0.77 | 0.70 | 94 | 1007.9 |
| 20260506220517 | 44 | 323 | 0.0 | 0.0 | 0.00 | 0.77 | 0.70 | 94 | 1007.9 |
| 20260506220017 | 44 | 323 | 0.0 | 0.0 | 0.00 | 0.77 | 0.70 | 94 | 1007.9 |
| 20260506215516 | 44 | 323 | 0.0 | 0.0 | 0.00 | 0.77 | 0.70 | 94 | 1007.9 |
| 20260506215016 | 44 | 323 | 0.0 | 0.0 | 0.00 | 0.77 | 0.70 | 94 | 1007.9 |
| 20260506214515 | 44 | 322 | 0.0 | 0.0 | 0.00 | 0.77 | 0.70 | 95 | 1007.9 |
| 20260506214015 | 44 | 321 | 0.0 | 0.0 | 0.00 | 0.77 | 0.70 | 95 | 1007.9 |
| 20260506213514 | 44 | 321 | 0.0 | 0.0 | 0.00 | 0.77 | 0.70 | 95 | 1007.8 |
| 20260506213014 | 44 | 311 | 0.0 | 0.0 | 0.00 | 0.77 | 0.70 | 95 | 1007.9 |
| 20260506212017 | 44 | 335 | 0.0 | 0.0 | 0.00 | 0.77 | 0.70 | 95 | 1007.7 |
| 20260506211529 | 44 | 329 | 0.0 | 0.0 | 0.00 | 0.77 | 0.70 | 95 | 1007.5 |
| 20260506211015 | 44 | 330 | 0.0 | 0.0 | 0.00 | 0.77 | 0.70 | 95 | 1007.6 |
| 20260506210514 | 44 | 327 | 0.0 | 0.0 | 0.00 | 0.77 | 0.70 | 95 | 1007.7 |
| 20260506210013 | 44 | 328 | 0.0 | 0.0 | 0.00 | 0.77 | 0.70 | 95 | 1007.7 |
| 20260506205513 | 44 | 333 | 0.0 | 0.0 | 0.00 | 0.77 | 0.70 | 94 | 1007.7 |
| 20260506205018 | 44 | 342 | 0.0 | 0.0 | 0.00 | 0.77 | 0.70 | 94 | 1007.7 |
| 20260506204518 | 44 | 355 | 0.0 | 0.0 | 0.00 | 0.77 | 0.70 | 94 | 1007.5 |
| 20260506204017 | 44 | 315 | 0.0 | 0.0 | 0.00 | 0.77 | 0.70 | 95 | 1007.5 |
| 20260506203517 | 44 | 315 | 0.0 | 0.0 | 0.00 | 0.77 | 0.70 | 96 | 1007.4 |
| 20260506203016 | 44 | 315 | 0.0 | 1.0 | 0.00 | 0.77 | 0.70 | 95 | 1007.4 |
| 20260506202515 | 44 | 315 | 0.0 | 0.0 | 0.00 | 0.77 | 0.70 | 95 | 1007.5 |
| 20260506202015 | 44 | 292 | 0.0 | 0.0 | 0.00 | 0.77 | 0.70 | 95 | 1007.4 |
| 20260506201515 | 44 | 286 | 0.0 | 0.0 | 0.00 | 0.77 | 0.70 | 95 | 1007.5 |
| 20260506201013 | 44 | 327 | 0.0 | 0.0 | 0.00 | 0.77 | 0.70 | 95 | 1007.5 |
| 20260506200017 | 45 | 283 | 0.0 | 4.0 | 0.00 | 0.77 | 0.70 | 96 | 1007.6 |
| 20260506195516 | 45 | 298 | 0.0 | 0.0 | 0.00 | 0.77 | 0.70 | 96 | 1007.5 |
| 20260506195015 | 45 | 12 | 0.0 | 0.0 | 0.00 | 0.77 | 0.70 | 95 | 1007.5 |
| 20260506194515 | 45 | 355 | 0.0 | 0.0 | 0.00 | 0.77 | 0.70 | 96 | 1007.4 |
| 20260506194014 | 45 | 355 | 0.0 | 0.0 | 0.00 | 0.77 | 0.70 | 96 | 1007.3 |
| 20260506193514 | 44 | 355 | 0.0 | 0.0 | 0.00 | 0.77 | 0.70 | 96 | 1007.3 |
| 20260506193013 | 44 | 355 | 0.0 | 0.0 | 0.00 | 0.77 | 0.70 | 95 | 1007.3 |
| 20260506192513 | 44 | 355 | 0.0 | 0.0 | 0.00 | 0.77 | 0.70 | 95 | 1007.4 |
| 20260506192012 | 44 | 355 | 0.0 | 0.0 | 0.00 | 0.77 | 0.70 | 95 | 1007.4 |
| 20260506191518 | 44 | 360 | 0.0 | 0.0 | 0.00 | 0.78 | 0.70 | 95 | 1007.3 |
| 20260506191017 | 44 | 360 | 0.0 | 0.0 | 0.00 | 0.78 | 0.70 | 95 | 1007.3 |
| 20260506190516 | 44 | 360 | 0.0 | 0.0 | 0.00 | 0.77 | 0.69 | 95 | 1007.0 |
| 20260506190016 | 44 | 360 | 0.0 | 0.0 | 0.00 | 0.77 | 0.69 | 95 | 1007.2 |
| 20260506185515 | 44 | 355 | 0.0 | 0.0 | 0.00 | 0.78 | 0.69 | 95 | 1007.2 |
| 20260506185015 | 44 | 355 | 0.0 | 0.0 | 0.00 | 0.78 | 0.69 | 95 | 1007.2 |
| 20260506184514 | 44 | 355 | 0.0 | 0.0 | 0.00 | 0.79 | 0.68 | 95 | 1007.2 |
| 20260506184014 | 44 | 355 | 0.0 | 0.0 | 0.00 | 0.83 | 0.68 | 95 | 1007.2 |
| 20260506183513 | 44 | 355 | 0.0 | 0.0 | 0.00 | 0.85 | 0.68 | 95 | 1007.0 |
| 20260506183013 | 44 | 360 | 0.0 | 0.0 | 0.00 | 0.85 | 0.68 | 96 | 1007.0 |
| 20260506182016 | 44 | 350 | 0.0 | 0.0 | 0.00 | 0.85 | 0.68 | 96 | 1006.9 |
| 20260506181516 | 44 | 350 | 0.0 | 0.0 | 0.00 | 0.85 | 0.68 | 96 | 1006.9 |
| 20260506180512 | 44 | 350 | 0.0 | 0.0 | 0.00 | 0.85 | 0.68 | 96 | 1007.1 |
| 20260506180018 | 44 | 350 | 0.0 | 0.0 | 0.00 | 0.85 | 0.68 | 96 | 1007.0 |
| 20260506175517 | 44 | 350 | 0.0 | 0.0 | 0.00 | 0.85 | 0.68 | 96 | 1007.0 |
| 20260506175017 | 44 | 348 | 0.0 | 0.0 | 0.00 | 0.85 | 0.68 | 97 | 1007.0 |
| 20260506174516 | 43 | 348 | 0.0 | 0.0 | 0.00 | 0.85 | 0.68 | 97 | 1007.0 |
| 20260506174016 | 43 | 348 | 0.0 | 0.0 | 0.00 | 0.85 | 0.68 | 97 | 1007.1 |
| 20260506173515 | 43 | 348 | 0.0 | 0.0 | 0.00 | 0.85 | 0.68 | 97 | 1007.2 |
| 20260506173014 | 43 | 26 | 0.0 | 0.0 | 0.00 | 0.85 | 0.68 | 97 | 1007.2 |
| 20260506172514 | 43 | 28 | 0.0 | 0.0 | 0.00 | 0.85 | 0.68 | 97 | 1007.2 |
| 20260506172014 | 43 | 28 | 0.0 | 0.0 | 0.00 | 0.85 | 0.68 | 97 | 1007.2 |
| 20260506170012 | 42 | 28 | 0.0 | 0.0 | 0.00 | 0.85 | 0.68 | 97 | 1007.5 |
| 20260506165518 | 42 | 28 | 0.0 | 0.0 | 0.00 | 0.84 | 0.67 | 97 | 1007.6 |
| 20260506165018 | 42 | 29 | 0.0 | 0.0 | 0.00 | 0.84 | 0.67 | 97 | 1007.6 |
| 20260506163513 | 42 | 30 | 0.0 | 0.0 | 0.00 | 0.85 | 0.67 | 97 | 1007.7 |
| 20260506163013 | 42 | 30 | 0.0 | 0.0 | 0.00 | 0.84 | 0.66 | 97 | 1007.7 |
| 20260506162512 | 42 | 30 | 0.0 | 1.0 | 0.00 | 0.83 | 0.65 | 97 | 1007.8 |
| 20260506162017 | 42 | 29 | 0.0 | 0.0 | 0.00 | 0.83 | 0.65 | 97 | 1007.8 |
| 20260506161014 | 42 | 5 | 0.0 | 0.0 | 0.00 | 0.81 | 0.63 | 97 | 1008.0 |
| 20260506160513 | 42 | 15 | 0.0 | 0.0 | 0.00 | 0.80 | 0.62 | 97 | 1007.8 |
| 20260506160018 | 42 | 16 | 0.0 | 0.0 | 0.00 | 0.79 | 0.61 | 97 | 1007.8 |
| 20260506155518 | 42 | 16 | 0.0 | 0.0 | 0.00 | 0.79 | 0.61 | 97 | 1007.7 |
| 20260506155017 | 41 | 16 | 0.0 | 0.0 | 0.00 | 0.78 | 0.60 | 97 | 1007.8 |
| 20260506154517 | 41 | 16 | 0.0 | 0.0 | 0.00 | 0.77 | 0.59 | 97 | 1007.9 |
| 20260506154016 | 41 | 15 | 0.0 | 0.0 | 0.00 | 0.77 | 0.59 | 97 | 1007.7 |
| 20260506153516 | 41 | 17 | 0.0 | 0.0 | 0.00 | 0.76 | 0.58 | 97 | 1007.7 |
| 20260506153015 | 41 | 17 | 0.0 | 0.0 | 0.00 | 0.75 | 0.57 | 97 | 1007.7 |
| 20260506152515 | 41 | 17 | 0.0 | 0.0 | 0.00 | 0.74 | 0.56 | 97 | 1007.5 |
| 20260506152014 | 41 | 24 | 0.0 | 0.0 | 0.00 | 0.73 | 0.55 | 97 | 1007.8 |
| 20260506151514 | 41 | 36 | 0.0 | 0.0 | 0.00 | 0.73 | 0.55 | 97 | 1007.7 |
| 20260506151012 | 41 | 36 | 0.0 | 0.0 | 0.00 | 0.72 | 0.54 | 97 | 1007.8 |
| 20260506150517 | 41 | 36 | 0.0 | 0.0 | 0.00 | 0.71 | 0.53 | 97 | 1008.0 |
| 20260506150017 | 41 | 36 | 0.0 | 0.0 | 0.00 | 0.70 | 0.52 | 97 | 1007.9 |
| 20260506145517 | 41 | 36 | 0.0 | 0.0 | 0.00 | 0.69 | 0.51 | 97 | 1007.8 |
| 20260506145016 | 41 | 36 | 0.0 | 0.0 | 0.00 | 0.68 | 0.50 | 97 | 1007.9 |
| 20260506144515 | 40 | 36 | 0.0 | 0.0 | 0.00 | 0.67 | 0.49 | 97 | 1008.2 |
| 20260506144015 | 40 | 36 | 0.0 | 1.0 | 0.00 | 0.66 | 0.48 | 96 | 1008.2 |
| 20260506143514 | 40 | 29 | 0.0 | 0.0 | 0.00 | 0.65 | 0.47 | 96 | 1008.0 |
| 20260506142512 | 41 | 336 | 0.0 | 0.0 | 0.00 | 0.63 | 0.45 | 97 | 1008.0 |
| 20260506142012 | 40 | 336 | 0.0 | 0.0 | 0.00 | 0.62 | 0.44 | 97 | 1008.0 |
| 20260506141512 | 40 | 336 | 0.0 | 0.0 | 0.00 | 0.61 | 0.43 | 97 | 1008.0 |
| 20260506140514 | 40 | 336 | 0.0 | 0.0 | 0.00 | 0.60 | 0.42 | 97 | 1007.8 |
| 20260506140014 | 40 | 336 | 0.0 | 0.0 | 0.00 | 0.59 | 0.41 | 97 | 1007.9 |
| 20260506135513 | 40 | 335 | 0.0 | 0.0 | 0.00 | 0.58 | 0.40 | 96 | 1008.0 |
| 20260506135013 | 40 | 335 | 0.0 | 0.0 | 0.00 | 0.57 | 0.39 | 96 | 1008.0 |
| 20260506134512 | 40 | 335 | 0.0 | 0.0 | 0.00 | 0.56 | 0.38 | 96 | 1007.8 |
| 20260506134018 | 40 | 334 | 0.0 | 0.0 | 0.00 | 0.55 | 0.37 | 96 | 1008.0 |
| 20260506133518 | 40 | 44 | 0.0 | 0.0 | 0.00 | 0.54 | 0.36 | 96 | 1007.9 |
| 20260506133017 | 40 | 44 | 0.0 | 0.0 | 0.00 | 0.53 | 0.35 | 96 | 1007.6 |
| 20260506132516 | 40 | 44 | 0.0 | 0.0 | 0.00 | 0.52 | 0.34 | 96 | 1007.4 |
| 20260506131514 | 40 | 44 | 0.0 | 0.0 | 0.00 | 0.51 | 0.33 | 96 | 1007.5 |
| 20260506131012 | 40 | 44 | 0.0 | 0.0 | 0.00 | 0.51 | 0.33 | 96 | 1007.6 |
| 20260506130016 | 40 | 44 | 0.0 | 0.0 | 0.00 | 0.49 | 0.31 | 96 | 1007.8 |
| 20260506125516 | 40 | 44 | 0.0 | 0.0 | 0.00 | 0.48 | 0.30 | 96 | 1007.8 |
| 20260506125015 | 40 | 45 | 0.0 | 0.0 | 0.00 | 0.47 | 0.29 | 96 | 1007.9 |
| 20260506124515 | 40 | 287 | 0.0 | 0.0 | 0.00 | 0.47 | 0.29 | 96 | 1007.7 |
| 20260506124014 | 40 | 269 | 0.0 | 0.0 | 0.00 | 0.47 | 0.29 | 96 | 1007.6 |
| 20260506123013 | 40 | 268 | 0.0 | 0.0 | 0.00 | 0.46 | 0.28 | 97 | 1007.3 |
| 20260506122512 | 40 | 268 | 0.0 | 0.0 | 0.00 | 0.46 | 0.28 | 96 | 1007.6 |
| 20260506122018 | 40 | 268 | 0.0 | 0.0 | 0.00 | 0.45 | 0.27 | 96 | 1007.6 |
| 20260506121517 | 40 | 268 | 0.0 | 0.0 | 0.00 | 0.45 | 0.27 | 96 | 1007.9 |
| 20260506121016 | 40 | 268 | 0.0 | 0.0 | 0.00 | 0.44 | 0.26 | 96 | 1008.2 |
| 20260506120515 | 40 | 268 | 0.0 | 0.0 | 0.00 | 0.44 | 0.26 | 96 | 1008.4 |
| 20260506120014 | 40 | 268 | 0.0 | 0.0 | 0.00 | 0.43 | 0.25 | 96 | 1008.2 |
| 20260506115514 | 40 | 268 | 0.0 | 0.0 | 0.00 | 0.42 | 0.24 | 96 | 1008.4 |
| 20260506115013 | 40 | 268 | 0.0 | 0.0 | 0.00 | 0.41 | 0.23 | 96 | 1008.5 |
| 20260506114017 | 40 | 268 | 0.0 | 0.0 | 0.00 | 0.40 | 0.22 | 96 | 1008.6 |
| 20260506113015 | 40 | 268 | 0.0 | 0.0 | 0.00 | 0.38 | 0.20 | 96 | 1008.7 |
| 20260506112514 | 40 | 268 | 0.0 | 0.0 | 0.00 | 0.37 | 0.19 | 96 | 1008.7 |
| 20260506112014 | 40 | 268 | 0.0 | 0.0 | 0.00 | 0.36 | 0.18 | 96 | 1008.6 |
| 20260506111513 | 41 | 268 | 0.0 | 0.0 | 0.00 | 0.35 | 0.17 | 96 | 1008.6 |
| 20260506111013 | 41 | 268 | 0.0 | 0.0 | 0.00 | 0.35 | 0.17 | 96 | 1008.5 |
| 20260506110517 | 41 | 267 | 0.0 | 0.0 | 0.00 | 0.34 | 0.16 | 96 | 1008.7 |
| 20260506110017 | 41 | 267 | 0.0 | 0.0 | 0.00 | 0.33 | 0.15 | 96 | 1008.8 |
| 20260506105516 | 41 | 267 | 0.0 | 1.0 | 0.00 | 0.33 | 0.15 | 96 | 1008.5 |
| 20260506105016 | 41 | 267 | 0.0 | 0.0 | 0.00 | 0.32 | 0.14 | 96 | 1008.2 |
| 20260506104515 | 41 | 267 | 0.0 | 0.0 | 0.00 | 0.32 | 0.14 | 96 | 1008.3 |
| 20260506104015 | 41 | 267 | 0.0 | 0.0 | 0.00 | 0.31 | 0.13 | 96 | 1008.0 |
| 20260506103514 | 41 | 267 | 0.0 | 0.0 | 0.00 | 0.31 | 0.13 | 96 | 1007.6 |
| 20260506103014 | 41 | 267 | 0.0 | 0.0 | 0.00 | 0.31 | 0.13 | 96 | 1007.9 |
| 20260506102513 | 41 | 267 | 0.0 | 0.0 | 0.00 | 0.31 | 0.13 | 96 | 1008.0 |
| 20260506102013 | 41 | 267 | 0.0 | 0.0 | 0.00 | 0.30 | 0.12 | 96 | 1008.0 |
| 20260506101512 | 41 | 267 | 0.0 | 0.0 | 0.00 | 0.30 | 0.12 | 96 | 1008.0 |
| 20260506101018 | 41 | 267 | 0.0 | 0.0 | 0.00 | 0.30 | 0.12 | 96 | 1008.1 |
| 20260506100014 | 41 | 267 | 0.0 | 0.0 | 0.00 | 0.29 | 0.11 | 95 | 1008.2 |
| 20260506095513 | 41 | 267 | 0.0 | 0.0 | 0.00 | 0.28 | 0.10 | 95 | 1008.2 |
| 20260506095012 | 41 | 267 | 0.0 | 0.0 | 0.00 | 0.28 | 0.10 | 96 | 1008.3 |
| 20260506094512 | 41 | 267 | 0.0 | 0.0 | 0.00 | 0.27 | 0.09 | 96 | 1008.3 |
| 20260506093516 | 41 | 267 | 0.0 | 0.0 | 0.00 | 0.26 | 0.08 | 95 | 1008.1 |
| 20260506093015 | 41 | 267 | 0.0 | 0.0 | 0.00 | 0.26 | 0.08 | 95 | 1008.3 |
| 20260506092515 | 41 | 267 | 0.0 | 0.0 | 0.00 | 0.26 | 0.08 | 95 | 1008.1 |
| 20260506092014 | 42 | 267 | 0.0 | 0.0 | 0.00 | 0.26 | 0.08 | 95 | 1008.0 |
| 20260506091018 | 42 | 267 | 0.0 | 0.0 | 0.00 | 0.26 | 0.08 | 95 | 1008.2 |
| 20260506090516 | 42 | 267 | 0.0 | 0.0 | 0.00 | 0.26 | 0.08 | 95 | 1008.2 |
| 20260506090015 | 42 | 267 | 0.0 | 0.0 | 0.00 | 0.25 | 0.07 | 95 | 1008.5 |
| 20260506085515 | 42 | 267 | 0.0 | 0.0 | 0.00 | 0.25 | 0.07 | 95 | 1008.3 |
| 20260506085014 | 42 | 267 | 0.0 | 0.0 | 0.00 | 0.25 | 0.07 | 95 | 1008.3 |
| 20260506084514 | 42 | 267 | 0.0 | 0.0 | 0.00 | 0.25 | 0.07 | 95 | 1008.3 |
| 20260506084013 | 42 | 267 | 0.0 | 0.0 | 0.00 | 0.25 | 0.07 | 96 | 1008.2 |
| 20260506083512 | 43 | 267 | 0.0 | 0.0 | 0.00 | 0.25 | 0.07 | 95 | 1008.3 |
| 20260506083012 | 43 | 267 | 0.0 | 0.0 | 0.00 | 0.25 | 0.07 | 95 | 1008.4 |
| 20260506082517 | 43 | 267 | 0.0 | 0.0 | 0.00 | 0.25 | 0.06 | 95 | 1008.3 |
| 20260506081515 | 43 | 267 | 0.0 | 0.0 | 0.00 | 0.25 | 0.06 | 95 | 1008.3 |
| 20260506080512 | 43 | 267 | 0.0 | 0.0 | 0.00 | 0.24 | 0.05 | 95 | 1008.5 |
| 20260506073514 | 43 | 267 | 0.0 | 0.0 | 0.00 | 0.24 | 0.05 | 94 | 1008.0 |
| 20260506073013 | 43 | 267 | 0.0 | 0.0 | 0.00 | 0.24 | 0.05 | 94 | 1007.9 |
| 20260506072513 | 43 | 267 | 0.0 | 0.0 | 0.00 | 0.24 | 0.05 | 94 | 1008.0 |
| 20260506072012 | 43 | 267 | 0.0 | 0.0 | 0.00 | 0.24 | 0.05 | 94 | 1008.2 |
| 20260506071016 | 43 | 267 | 0.0 | 0.0 | 0.00 | 0.24 | 0.05 | 94 | 1008.5 |
| 20260506070514 | 43 | 267 | 0.0 | 0.0 | 0.00 | 0.24 | 0.05 | 94 | 1008.4 |
| 20260506062512 | 43 | 273 | 0.0 | 0.0 | 0.00 | 0.24 | 0.05 | 91 | 1008.5 |
| 20260506062018 | 43 | 273 | 0.0 | 0.0 | 0.00 | 0.24 | 0.05 | 91 | 1008.8 |
| 20260506061517 | 43 | 300 | 0.0 | 0.0 | 0.00 | 0.24 | 0.05 | 92 | 1008.6 |
| 20260506061017 | 43 | 279 | 0.0 | 0.0 | 0.00 | 0.24 | 0.05 | 92 | 1008.7 |
| 20260506060515 | 44 | 248 | 0.0 | 0.0 | 0.00 | 0.24 | 0.05 | 93 | 1008.8 |
| 20260506051017 | 46 | 233 | 0.0 | 0.0 | 0.00 | 0.22 | 0.03 | 94 | 1008.4 |
| 20260506050515 | 46 | 233 | 0.0 | 0.0 | 0.00 | 0.22 | 0.03 | 94 | 1008.5 |
| 20260506045013 | 47 | 261 | 0.0 | 0.0 | 0.00 | 0.22 | 0.03 | 95 | 1008.9 |
| 20260506044512 | 47 | 281 | 0.0 | 0.0 | 0.00 | 0.22 | 0.03 | 95 | 1008.9 |
| 20260506043014 | 47 | 242 | 0.0 | 0.0 | 0.00 | 0.22 | 0.03 | 95 | 1008.9 |
| 20260506042012 | 47 | 242 | 0.0 | 0.0 | 0.00 | 0.21 | 0.02 | 95 | 1008.7 |
| 20260506041517 | 47 | 242 | 0.0 | 0.0 | 0.00 | 0.21 | 0.02 | 95 | 1008.5 |
| 20260506041017 | 47 | 242 | 0.0 | 0.0 | 0.00 | 0.20 | 0.01 | 94 | 1008.4 |
| 20260506040540 | 47 | 242 | 0.0 | 0.0 | 0.00 | 0.20 | 0.01 | 94 | 1008.6 |
| 20260506040014 | 47 | 260 | 0.0 | 0.0 | 0.00 | 0.19 | 0.00 | 95 | 1008.6 |
| 20260506034516 | 48 | 262 | 0.0 | 0.0 | 0.00 | 0.19 | 0.19 | 94 | 1008.2 |
| 20260506034015 | 48 | 263 | 0.0 | 0.0 | 0.00 | 0.18 | 0.18 | 94 | 1008.2 |
| 20260506033515 | 48 | 263 | 0.0 | 0.0 | 0.00 | 0.18 | 0.18 | 94 | 1008.0 |
| 20260506033014 | 48 | 263 | 0.0 | 0.0 | 0.00 | 0.18 | 0.18 | 94 | 1007.7 |
| 20260506032514 | 48 | 263 | 0.0 | 0.0 | 0.00 | 0.18 | 0.18 | 94 | 1008.0 |
| 20260506032013 | 48 | 263 | 0.0 | 0.0 | 0.00 | 0.18 | 0.18 | 94 | 1008.1 |
| 20260506031011 | 48 | 263 | 0.0 | 0.0 | 0.00 | 0.17 | 0.17 | 93 | 1007.9 |
| 20260506030517 | 48 | 263 | 0.0 | 0.0 | 0.00 | 0.17 | 0.17 | 93 | 1008.0 |
| 20260506030015 | 48 | 263 | 0.0 | 0.0 | 0.00 | 0.17 | 0.17 | 92 | 1008.0 |
| 20260506025514 | 49 | 266 | 0.0 | 0.0 | 0.00 | 0.16 | 0.16 | 92 | 1008.1 |
| 20260506024512 | 49 | 267 | 0.0 | 0.0 | 0.00 | 0.15 | 0.15 | 92 | 1008.0 |
| 20260506024012 | 49 | 284 | 0.0 | 0.0 | 0.00 | 0.15 | 0.15 | 91 | 1008.2 |
| 20260506023517 | 49 | 272 | 0.0 | 0.0 | 0.00 | 0.15 | 0.15 | 91 | 1008.2 |
| 20260506023017 | 49 | 272 | 0.0 | 0.0 | 0.00 | 0.15 | 0.15 | 91 | 1008.3 |
| 20260506022015 | 49 | 275 | 0.0 | 0.0 | 0.00 | 0.14 | 0.14 | 90 | 1008.2 |
| 20260506021013 | 50 | 275 | 0.0 | 0.0 | 0.00 | 0.14 | 0.14 | 89 | 1008.2 |
| 20260506020016 | 50 | 274 | 0.0 | 0.0 | 0.00 | 0.13 | 0.13 | 89 | 1008.0 |
| 20260506015515 | 50 | 275 | 0.0 | 0.0 | 0.00 | 0.13 | 0.13 | 88 | 1008.0 |
| 20260506015014 | 51 | 275 | 0.0 | 0.0 | 0.00 | 0.13 | 0.13 | 86 | 1008.0 |
| 20260506014514 | 51 | 277 | 0.0 | 0.0 | 0.00 | 0.13 | 0.13 | 85 | 1007.9 |
| 20260506014013 | 51 | 277 | 0.0 | 0.0 | 0.00 | 0.13 | 0.13 | 84 | 1007.9 |
| 20260506013017 | 52 | 215 | 0.0 | 1.0 | 0.00 | 0.13 | 0.13 | 82 | 1007.9 |
| 20260506012516 | 53 | 272 | 0.0 | 0.0 | 0.00 | 0.13 | 0.13 | 81 | 1008.0 |
| 20260506012016 | 53 | 292 | 0.0 | 1.0 | 0.00 | 0.13 | 0.13 | 78 | 1007.8 |
| 20260506011515 | 54 | 287 | 0.0 | 0.0 | 0.00 | 0.12 | 0.12 | 76 | 1007.7 |
| 20260506011015 | 54 | 288 | 0.0 | 0.0 | 0.00 | 0.12 | 0.12 | 74 | 1007.8 |
| 20260506010514 | 54 | 275 | 0.0 | 1.0 | 0.00 | 0.12 | 0.12 | 73 | 1007.4 |
| 20260506005516 | 55 | 240 | 0.0 | 1.0 | 0.00 | 0.12 | 0.12 | 70 | 1007.4 |
| 20260506005016 | 55 | 290 | 0.0 | 1.0 | 0.00 | 0.12 | 0.12 | 71 | 1007.3 |
| 20260506004515 | 56 | 325 | 2.0 | 11.0 | 0.00 | 0.12 | 0.12 | 72 | 1007.2 |
| 20260506004015 | 56 | 292 | 0.0 | 0.0 | 0.00 | 0.12 | 0.12 | 71 | 1007.0 |
| 20260506003514 | 56 | 298 | 4.0 | 9.0 | 0.00 | 0.12 | 0.12 | 71 | 1006.9 |
| 20260506003013 | 56 | 253 | 4.0 | 9.0 | 0.00 | 0.12 | 0.12 | 70 | 1006.6 |
| 20260506002512 | 57 | 284 | 0.0 | 0.0 | 0.00 | 0.12 | 0.12 | 74 | 1006.5 |
| 20260506002012 | 57 | 252 | 3.0 | 11.0 | 0.00 | 0.12 | 0.12 | 73 | 1006.5 |
| 20260506001511 | 58 | 257 | 2.0 | 4.0 | 0.00 | 0.12 | 0.12 | 76 | 1006.3 |
| 20260506001017 | 58 | 250 | 0.0 | 0.0 | 0.00 | 0.12 | 0.12 | 76 | 1005.9 |
| 20260506000516 | 58 | 244 | 0.0 | 2.0 | 0.00 | 0.12 | 0.12 | 75 | 1005.7 |
| 20260506000014 | 58 | 231 | 4.0 | 9.0 | 0.00 | 0.12 | 0.12 | 76 | 1005.5 |
| 20260505235514 | 59 | 250 | 0.0 | 0.0 | 0.00 | 0.12 | 0.12 | 77 | 1005.3 |
| 20260505234512 | 59 | 261 | 0.0 | 0.0 | 0.00 | 0.12 | 0.12 | 76 | 1005.1 |
| 20260505234017 | 59 | 248 | 1.0 | 5.0 | 0.00 | 0.12 | 0.12 | 76 | 1005.0 |
| 20260505233015 | 60 | 232 | 0.0 | 1.0 | 0.00 | 0.12 | 0.12 | 75 | 1005.0 |
| 20260505232514 | 60 | 273 | 0.0 | 2.0 | 0.00 | 0.12 | 0.12 | 75 | 1004.9 |